Location: *
(40.7873°S, 98.7174°E)
Time: 08:53:10
(UTC+00:00)

Cosmos 1340 Rocket - Pass Details

Date: 24 May 2022
Orbit: 527 x 554 km, 81.2° (Epoch: 04 July)

Event Time Altitude Azimuth Distance (km) Brightness Sun altitude
Rises 11:23:59 0° 347° (NNW) 2,683 6.8 -13.8°
Reaches altitude 10° 11:26:07 10° 344° (NNW) 1,805 5.9 -14.2°
Maximum altitude 11:30:05 70° 259° (W) 589 3.1 -14.9°
Drops below altitude 10° 11:34:09 10° 175° (S) 1,850 5.3 -15.6°
Enters shadow 11:36:17 - 172° (S) 2,724 6.2 -16.0°
